Notices

What's New in latest Release from April 7th, 2021:

- Updated Glossary, including Speed of Maximum Gust, and Total Hourly Precipitation

- Updated national and regional climate services offices contacts and prices information

- Addition of station inventory lists for 1981-2010, 1971-2000, and 1961-1990 Normals.

If you haven't already, please take our survey and provide feedback about our website: https://eccc.sondage-survey.ca/f/LanguageSelection.aspx?s=442ca660-fcf1-47c0-95a9-59707d6fd709

Hourly Data Report for December 17, 2020

MUSKOKA
ONTARIO
Current Station Operator: NAVCAN

44°58'29.000" N
79°18'12.000" W
281.90 m
6115529
71532
YQA

Download Data

Hourly Data (December 2020)
Hourly Data Report for December 17, 2020
TIME
LST
Temp Definition
°C
Dew Point Definition
°C
Rel Hum Definition
%
Precip. Amount Definition
mm

Wind Dir Definition
10's deg

Wind Spd Definition
km/h
Visibility Definition
km
Stn Press Definition
kPa
Hmdx Definition


Wind Chill Definition


Weather Definition


00:00 -10.4 -18.7 51 0.0 8 8 16.1 98.52   -15 LegendNANA
01:00 -10.4 -18.0 54 0.0 9 8 16.1 98.49   -15 Snow
02:00 -10.4 -17.6 56 0.0 7 8 16.1 98.47   -15 LegendNANA
03:00 -10.3 -17.5 56 0.0 6 5 16.1 98.51   -13 LegendNANA
04:00 -10.3 -17.7 55 0.0 LegendMM 4 16.1 98.52   -13 LegendNANA
05:00 -10.1 -17.5 55 0.0 7 5 16.1 98.53   -13 LegendNANA
06:00 -9.8 -17.9 52 0.0 LegendMM 4 16.1 98.55   -12 LegendNANA
07:00 -9.9 -16.9 57 0.0 LegendMM 4 16.1 98.59   -12 LegendNANA
08:00 -10.1 -17.8 54 0.0 6 5 16.1 98.63   -13 LegendNANA
09:00 -10.5 -19.3 49 0.0 8 5 16.1 98.67   -14 LegendNANA
10:00 -9.7 -19.5 45 0.0 9 11 16.1 98.69   -15 LegendNANA
11:00 -8.1 -19.2 41 0.0 11 8 16.1 98.68   -12 LegendNANA
12:00 -6.4 -18.0 40 0.0 8 5 16.1 98.64   -9 LegendNANA
13:00 -4.8 -16.8 39 0.0 8 8 16.1 98.61   -8 LegendNANA
14:00 -3.5 -14.4 43 0.0 6 8 16.1 98.59   -7 LegendNANA
15:00 -2.8 -13.7 43 0.0 LegendMM 5 16.1 98.58   -5 LegendNANA
16:00 -3.0 -13.7 44 0.0 4 5 16.1 98.66   -5 LegendNANA
17:00 -4.9 -13.3 52 0.0   0 16.1 98.73     LegendNANA
18:00 -7.4 -13.0 65 0.0   0 16.1 98.78     LegendNANA
19:00 -9.2 -12.9 75 0.0 7 5 16.1 98.81   -12 LegendNANA
20:00 -10.8 -13.6 80 0.0   0 16.1 98.91     LegendNANA
21:00 -11.5 -13.5 85 0.0 LegendMM 4 16.1 98.98   -14 LegendNANA
22:00 -11.5 -15.4 73 0.0   0 16.1 99.02     LegendNANA
23:00 -12.6 -16.1 75 0.0 8 4 16.1 99.06   -15 LegendNANA

Notes on Data Quality.

Legend

  • E = Estimated
  • M = Missing
  • NA = Not Available*
  • [empty] = Indicates an unobserved value
Date modified: